User: anonymous   Login
Location: Lower Kingswood
(51.2667°N, 0.2167°W)
Time: 05:34:07
(UTC+00:00)
Language:

ARIANE 5 R/B - Orbit

View from above orbital plane
View from above orbital plane
View from above satellite
View from above satellite

Ground track
Ground track

The orbit data is extracted from the following two-line orbital elements,

1 27387U 02009B   24060.55643736  .00000168  00000-0  72776-4 0  9997
2 27387  98.7916  48.3804 0033417  81.6156 278.8815 14.36332526152902
Epoch (UTC): 29 February 2024 13:21:16
Eccentricity: 0.0033417
inclination: 98.7916°
perigee height: 747 km
apogee height: 794 km
right ascension of ascending node: 48.3804°
argument of perigee: 81.6156°
revolutions per day: 14.36332526
mean anomaly at epoch: 278.8815°
orbit number at epoch: 15290

The dashed part of the orbit path shows where the satellite is in the earth's shadow,  

DLR